Volver al catálogo

NOAA 16 DEB

ActivoSSO
NORAD 41538·DEBRIS·🇺🇸 United States

Lanzado Sep 21, 2000 desde Vandenberg Space Force Base

Loading…

Próximos Pases (próximas 24 horas)

TLE

EnvejeciendoSource: Space-Track

Época: Sep 10, 2026, 06:19 UTC

1 41538U 00055NN  26253.26386948  .00002418  00000-0  11721-2 0  9994
2 41538  98.7591 252.8733 0045446  31.1104 329.2748 14.18775405544678

Sigue NOAA 16 DEB en tiempo real con AllMySat

Download on the App Store